Bandar Baru Cenih, Malaysia

2:35 AM +08 on November 24, 2017 (GMT +0800)
Bandar Baru Cenih

Weather History for 48657 - February, 2014

Change the Weather History Date:

Wednesday, February 12, 2014

  Actual Average Record
Temperature  
Mean Temperature 82 °F -  
Max Temperature 89 °F 88 °F - ()
Min Temperature 74 °F 71 °F - ()
Cooling Degree Days 16    
Growing Degree Days 32 (Base 50)    
Moisture  
Dew Point 73 °F    
Average Humidity 79    
Maximum Humidity 89    
Minimum Humidity 56    
Precipitation  
Precipitation 0.00 in 0.21 in - ()
Sea Level Pressure  
Sea Level Pressure 29.80 in    
Wind  
Wind Speed 5 mph ()    
Max Wind Speed 10 mph    
Max Gust Speed -    
Visibility 6.7 miles    
Events      
T = Trace of Precipitation, MM = Missing Value Source: Averaged Metar Reports

Daily Weather History Graph

Daily Weather History Graph

Search for Another Location

Airport or City:

Trip Planner

Search our weather history database for the weather conditions in past years. The results will help you decide how hot, cold, wet, or windy it might be!

Date:

Astronomy

Feb. 12, 2014 Rise Set
Actual Time 7:21 AM +08 7:21 PM +08
Civil Twilight 7:00 AM +08 7:42 PM +08
Nautical Twilight 6:35 AM +08 8:07 PM +08
Astronomical Twilight 6:10 AM +08 8:31 PM +08
Moon 5:17 PM +08 (2/12) 5:03 AM +08 (2/12)
Length of Visible Light 12h 42m
Length of Day
11h 59m
Waxing Gibbous, 93% of the Moon is Illuminated
Feb 12
Waxing Gibbous
Feb 15
Full
Feb 23
Last Quarter
Mar 1
New
Mar 8
First Quarter

Hourly Weather History & Observations

Time (+08) Temp. Heat Index Dew Point Humidity Pressure Visibility Wind Dir Wind Speed Gust Speed Precip Events Conditions
12:00 AM 77.0 °F - 71.6 °F 83% 29.83 in 6.2 mi NNE 4.6 mph - N/A   Mostly Cloudy
1:00 AM 75.2 °F - 71.6 °F 89% 29.80 in 6.2 mi North 4.6 mph - N/A   Mostly Cloudy
2:00 AM 75 °F - 72 °F 86% 29.79 in 6 mi North 4.6 mph - -   Haze
2:00 AM 75.2 °F - 71.6 °F 89% 29.77 in 6.2 mi North 4.6 mph - N/A   Mostly Cloudy
3:00 AM 75.2 °F - 71.6 °F 89% 29.77 in 6.2 mi North 3.5 mph - N/A   Mostly Cloudy
4:00 AM 75.2 °F - 71.6 °F 89% 29.77 in 6.2 mi North 3.5 mph - N/A   Mostly Cloudy
5:00 AM 75 °F - 71 °F 85% 29.76 in 6 mi North 3.5 mph - -   Haze
5:00 AM 75.2 °F - 71.6 °F 89% 29.74 in 6.2 mi North 3.5 mph - N/A   Mostly Cloudy
6:00 AM 75.2 °F - 71.6 °F 89% 29.77 in 6.2 mi North 3.5 mph - N/A   Mostly Cloudy
7:00 AM 75.2 °F - 71.6 °F 89% 29.77 in 6.2 mi North 3.5 mph - N/A   Mostly Cloudy
8:00 AM 75 °F - 71 °F 85% 29.81 in 7 mi North 4.6 mph - -   Haze
8:00 AM 75.2 °F - 71.6 °F 89% 29.80 in 6.2 mi North 4.6 mph - N/A   Mostly Cloudy
9:00 AM 78.8 °F - 73.4 °F 83% 29.83 in 6.2 mi North 6.9 mph - N/A   Mostly Cloudy
10:00 AM 82.4 °F 88.2 °F 73.4 °F 74% 29.83 in 6.2 mi NNW 9.2 mph - N/A   Mostly Cloudy
11:00 AM 82 °F - 75 °F 73% 29.86 in 11 mi North 5.8 mph - -   Haze
11:00 AM 82.4 °F 89.5 °F 75.2 °F 79% 29.86 in 6.2 mi North 5.8 mph - N/A   Mostly Cloudy
12:00 PM 84.2 °F 92.3 °F 75.2 °F 74% 29.83 in 6.2 mi North 5.8 mph - N/A   Mostly Cloudy
1:00 PM 87.8 °F 97.6 °F 75.2 °F 66% 29.83 in 6.2 mi NE 4.6 mph - N/A   Mostly Cloudy
2:00 PM 88 °F - 76 °F 59% 29.80 in 11 mi East 8.1 mph - -   Haze
2:00 PM 87.8 °F 97.6 °F 75.2 °F 66% 29.80 in 6.2 mi East 8.1 mph - N/A   Mostly Cloudy
3:00 PM 87.8 °F 97.6 °F 75.2 °F 66% 29.77 in 6.2 mi East 10.4 mph - N/A   Mostly Cloudy
4:00 PM 87.8 °F 97.6 °F 75.2 °F 66% 29.74 in 6.2 mi ENE 9.2 mph - N/A   Mostly Cloudy
5:00 PM 87 °F - 74 °F 56% 29.75 in 10 mi NE 8.1 mph - -   Haze
5:00 PM 87.8 °F 95.6 °F 73.4 °F 62% 29.74 in 6.2 mi NE 8.1 mph - N/A   Mostly Cloudy
6:00 PM 86.0 °F 95.1 °F 75.2 °F 70% 29.74 in 6.2 mi NE 8.1 mph - N/A   Mostly Cloudy
7:00 PM 82.4 °F 88.2 °F 73.4 °F 74% 29.77 in 6.2 mi NNE 6.9 mph - N/A   Mostly Cloudy
8:00 PM 81 °F - 74 °F 75% 29.80 in 7 mi NNE 5.8 mph - -   Haze
8:00 PM 80.6 °F 86.2 °F 75.2 °F 84% 29.80 in 6.2 mi NNE 5.8 mph - N/A   Mostly Cloudy
9:00 PM 78.8 °F - 75.2 °F 89% 29.83 in 6.2 mi North 3.5 mph - N/A   Mostly Cloudy
10:00 PM 78.8 °F - 73.4 °F 83% 29.86 in 6.2 mi North 3.5 mph - N/A   Mostly Cloudy
11:00 PM 77 °F - 73 °F 85% 29.87 in 7 mi North 3.5 mph - -   Haze
11:00 PM 77.0 °F - 73.4 °F 89% 29.86 in 6.2 mi North 3.5 mph - N/A   Mostly Cloudy